Regional Weather Roundup
Issued by NWS

Home | Current Version | Previous Version | Text Only | Print | Product List | Glossary Off
Versions: 1 2 3 4 5 6 7 8 9 10 11 12 13 14 15 16 17 18 19 20 21 22 23 24 25 26 27 28 29 30 31 32 33 34 35 36 37 38 39 40 41 42 43 44 45 46 47 48 49 50

514
ASUS43 KDMX 201701
RWRIA

WEATHER ROUNDUP FOR IOWA
NATIONAL WEATHER SERVICE DES MOINES IA
1100 AM CST FRI JAN 20 2017

NOTE: "FAIR" INDICATES FEW OR NO CLOUDS BELOW 12,000 FEET WITH NO
SIGNIFICANT WEATHER AND/OR OBSTRUCTIONS TO VISIBILITY.

* - THESE STATIONS ARE NOT NWS STATIONS...THUS NOT UNDER NWS
QUALITY CONTROL.  THEY ALSO DO NOT REPORT WEATHER SUCH
AS PRECIPITATION OR FOG.

IAZ001>003-012>014-020>022-031>034-043>046-201800-
   NORTHWEST IOWA

CITY           SKY/WX    TMP DP  RH WIND       PRES   REMARKS
CARROLL *      FOG       37  37 100 S7        29.58F VSB<1/4 WCI  32
CHEROKEE *     CLOUDY    37  37 100 S6        29.56F FOG     WCI  33
DENISON *      FOG       39  39 100 SE7       29.54F VSB 1   WCI  34
LE MARS *      CLOUDY    39  39 100 S6        29.55F FOG     WCI  35
ORANGE CITY *  DRZL/FOG  37  37 100 SE5       29.54F VSB 1   WCI  34
SHELDON *      PTSUNNY   37  37 100 SE12      29.53F FOG     WCI  30
SIOUX CITY     CLOUDY    40  39  97 SE9       29.54F FOG     WCI  34
SPENCER        FOG       36  36 100 S9        29.57F VSB 3/4 WCI  29
STORM LAKE *   FOG       37  36  93 SE7       29.56F VSB<1/4 WCI  32
$$

IAZ055>058-069>071-079>083-090>094-201800-
   SOUTHWEST IOWA

CITY           SKY/WX    TMP DP  RH WIND       PRES   REMARKS
ATLANTIC *     FOG       39  39 100 E5        29.56F VSB 3/4
AUDUBON *      FOG       39  37  93 CALM      29.58F VSB 1/4
CLARINDA *     CLOUDY    41  41 100 NE3       29.57S
COUNCIL BLFS * CLOUDY    41  41 100 SE7       29.54F
CRESTON *      FOG       37  37 100 E6        29.58F VSB 1/2 WCI  33
HARLAN  *      FOG       39  39 100 E6        29.58F VSB 3/4 WCI  35
LAMONI         FOG       40  40 100 E7        29.56F VSB 1/4
RED OAK *      CLOUDY    41  41 100 E5        29.56S
SHENANDOAH *   CLOUDY    43  43 100 NE5       29.56S
$$

IAZ047>049-059>061-072>074-084-201800-
   CENTRAL IOWA

CITY           SKY/WX    TMP DP  RH WIND       PRES   REMARKS
AMES           CLOUDY    37  37 100 SE3       29.59F FOG
ANKENY *       CLOUDY    39  39 100 S7        29.62R FOG     WCI  34
BOONE *        FOG       37  37 100 SE7       29.58F VSB 1/4 WCI  32
CHARITON *     CLOUDY    41  39  93 E8        29.58F FOG
DES MOINES     CLOUDY    39  38  96 S8        29.62R FOG     WCI  33
GRINNELL*      FOG       37  37  99 E7        29.62F VSB 1/4 WCI  31
KNOXVILLE *    PTSUNNY   39  39 100 SE5       29.60F
MARSHALLTOWN   FOG       37  37 100 E7        29.59F VSB 1/4 WCI  32
NEWTON *       FOG       37  37 100 SE8       29.61R VSB 1/2 WCI  31
PELLA *        CLOUDY    39  39  98 SE5       29.64R FOG
PERRY *        FOG       38  37  98 SE5       29.59F VSB 1/2 WCI  34
$$

IAZ004>006-015-016-023>025-035-036-201800-
   NORTH CENTRAL IOWA

CITY           SKY/WX    TMP DP  RH WIND       PRES   REMARKS
ALGONA *       FOG       36  36 100 S6        29.60S VSB 1/4 WCI  31
CLARION *      CLOUDY    36  36 100 SE9       29.59F FOG     WCI  29
ESTHERVILLE    FOG       34  34 100 S9        29.58R VSB 3/4 WCI  27
FORT DODGE *   CLOUDY    36  34  93 E3        29.59F
MASON CITY     FOG       33  33 100 SE12      29.62R VSB 1/4 WCI  24
FOREST CITY *  CLOUDY    34  34 100 SE7       29.60F FOG     WCI  28
WEBSTER CITY * FOG       36  36 100 SE5       29.56F VSB 1/4 WCI  32
IOWA FALLS *   FOG       36  36  99 SE6       29.61F VSB 1/4 WCI  31
$$

IAZ007>011-017>019-026>030-037>042-050>054-066-201800-
   NORTHEAST IOWA

CITY           SKY/WX    TMP DP  RH WIND       PRES   REMARKS
CEDAR RAPIDS   CLOUDY    37  37 100 SE7       29.62F FOG     WCI  32
CHARLES CITY * FOG       34  34 100 S9        29.63S VSB<1/4 WCI  26
CLINTON *      CLOUDY    39  39 100 S7        29.65F FOG     WCI  34
DECORAH *      FOG       36  36 100 SE6       29.62S VSB<1/4 WCI  31
DUBUQUE        CLOUDY    37  37 100 SE6       29.63F FOG     WCI  32
MONTICELLO *   CLOUDY    37  37 100 VRB6      29.62F FOG     WCI  33
OELWEIN *      CLOUDY    36  36 100 S7        29.63S FOG     WCI  30
WATERLOO       CLOUDY    37  36  96 SE7       29.62F FOG     WCI  32
$$

IAZ064-065-067-068-078-201800-
   EAST CENTRAL IOWA

CITY           SKY/WX    TMP DP  RH WIND       PRES   REMARKS
DAVENPORT      CLOUDY    39  38  96 S7        29.65S FOG     WCI  34
IOWA CITY      CLOUDY    39  38  96 SE7       29.65F FOG     WCI  34
MUSCATINE *    CLOUDY    39  39 100 S7G14     29.66R FOG     WCI  34
QUAD CITIES    CLOUDY    41  38  89 S3        29.65S FOG
$$

IAZ062-063-075>077-085>089-095>099-201800-
   SOUTHEAST IOWA

CITY           SKY/WX    TMP DP  RH WIND       PRES   REMARKS
BURLINGTON     FOG       40  40 100 CALM      29.63F VSB 1/4
FAIRFIELD *    FOG       39  39 100 SE7       29.63F VSB<1/4 WCI  34
FORT MADISON * FOG       43  41  93 SE3       29.64F VSB 3/4
KEOKUK *       FOG       43 N/A N/A SE5       29.63F VSB 1/2
OSKALOOSA *    FOG       37  37  99 SE8       29.63F VSB 1/4 WCI  31
OTTUMWA        FOG       39  38  96 SE6       29.62S VSB 1/4 WCI  35
WASHINGTON *   FOG       39  39 100 S7        29.65F VSB 1/2 WCI  34
$$

ABBREVIATIONS USED IN REMARKS
   TC - TEMPERATURES IN CELSIUS
  WCI - WIND CHILL INDEX
   HX - HEAT INDEX
  VSB - VISIBILITY
$$





USA.gov is the U.S. government's official web portal to all federal, state and local government web resources and services.